Columbia Owens, SC

6:30 PM EDT on April 23, 2018 (GMT -0400)
Columbia Owens Downtown

Weather History for KCUB - May, 2014

Change the Weather History Date:

Friday, May 16, 2014

  Actual Average Record
Temperature  
Mean Temperature 67 °F 72 °F  
Max Temperature 76 °F 84 °F 94 °F (2017)
Min Temperature 57 °F 60 °F 50 °F (2000)
Degree Days  
Heating Degree Days 0 0  
Month to date heating degree days 2 11  
Since 1 July heating degree days 2462 2312  
Cooling Degree Days 2 8  
Month to date cooling degree days 147 95  
Year to date cooling degree days 251 194  
Growing Degree Days 15 (Base 50)    
Moisture  
Dew Point 45 °F    
Average Humidity 49    
Maximum Humidity 80    
Minimum Humidity 27    
Precipitation  
Precipitation 0.00 in 0.10 in 1.48 in (2012)
Month to date precipitation 2.24 1.36  
Year to date precipitation 15.25 15.21  
Sea Level Pressure  
Sea Level Pressure 29.99 in    
Wind  
Wind Speed 9 mph (WNW)    
Max Wind Speed 21 mph    
Max Gust Speed 27 mph    
Visibility 10 miles    
Events      
T = Trace of Precipitation, MM = Missing Value Source: NWS Daily Summary

Daily Weather History Graph

Daily Weather History Graph

Search for Another Location

Airport or City:

Astronomy

May. 16, 2014 Rise Set
Actual Time 6:21 AM EDT 8:19 PM EDT
Civil Twilight 5:54 AM EDT 8:47 PM EDT
Nautical Twilight 5:20 AM EDT 9:20 PM EDT
Astronomical Twilight 4:44 AM EDT 9:56 PM EDT
Moon 10:24 PM EDT (5/16) 8:02 AM EDT (5/16)
Length of Visible Light 14h 52m
Length of Day
13h 57m
Waning Gibbous, 95% of the Moon is Illuminated
May 16
Waning Gibbous
May 21
Last Quarter
May 28
New
Jun 5
First Quarter
Jun 13
Full

Hourly Weather History & Observations

Time (EDT) Temp. Dew Point Humidity Pressure Visibility Wind Dir Wind Speed Gust Speed Precip Events Conditions
12:53 AM 64.0 °F 54.0 °F 70% 29.92 in 10.0 mi West 9.2 mph - N/A   Mostly Cloudy
2:27 AM 61.0 °F 52.0 °F 72% 29.92 in 10.0 mi West 12.7 mph - N/A   Overcast
2:53 AM 60.1 °F 52.0 °F 75% 29.91 in 10.0 mi West 6.9 mph - N/A   Mostly Cloudy
3:17 AM 60.1 °F 51.1 °F 72% 29.91 in 10.0 mi West 10.4 mph - N/A   Partly Cloudy
4:53 AM 57.9 °F 52.0 °F 81% 29.91 in 10.0 mi Calm Calm - N/A   Clear
5:53 AM 57.0 °F 52.0 °F 83% 29.94 in 10.0 mi West 6.9 mph - N/A   Clear
6:53 AM 57.9 °F 48.9 °F 72% 29.97 in 10.0 mi NW 6.9 mph - N/A   Scattered Clouds
7:53 AM 59.0 °F 45.0 °F 60% 29.99 in 10.0 mi NW 6.9 mph - N/A   Clear
8:53 AM 61.0 °F 43.0 °F 52% 29.99 in 10.0 mi NW 6.9 mph - N/A   Clear
9:53 AM 64.0 °F 42.1 °F 45% 30.00 in 10.0 mi Variable 6.9 mph - N/A   Clear
10:53 AM 66.0 °F 45.0 °F 47% 30.02 in 10.0 mi Variable 5.8 mph - N/A   Clear
11:53 AM 68.0 °F 43.0 °F 40% 30.03 in 10.0 mi West 15.0 mph 20.7 mph N/A   Clear
12:53 PM 70.0 °F 42.1 °F 36% 30.02 in 10.0 mi West 16.1 mph 19.6 mph N/A   Clear
1:53 PM 73.0 °F 41.0 °F 31% 30.00 in 10.0 mi West 11.5 mph 20.7 mph N/A   Clear
2:53 PM 73.9 °F 39.9 °F 29% 29.99 in 10.0 mi NW 13.8 mph 21.9 mph N/A   Clear
3:53 PM 73.9 °F 37.9 °F 27% 29.99 in 10.0 mi WNW 15.0 mph 25.3 mph N/A   Scattered Clouds
4:53 PM 73.9 °F 39.9 °F 29% 29.98 in 10.0 mi WSW 13.8 mph - N/A   Partly Cloudy
5:53 PM 73.9 °F 41.0 °F 30% 29.98 in 10.0 mi West 13.8 mph 21.9 mph N/A   Mostly Cloudy
6:53 PM 73.0 °F 42.1 °F 33% 29.99 in 10.0 mi West 13.8 mph - N/A   Clear
7:53 PM 71.1 °F 42.1 °F 35% 30.01 in 10.0 mi West 8.1 mph - N/A   Clear
8:53 PM 69.1 °F 41.0 °F 36% 30.04 in 10.0 mi NW 8.1 mph - N/A   Clear
9:53 PM 66.9 °F 41.0 °F 39% 30.06 in 10.0 mi WNW 4.6 mph - N/A   Clear
10:53 PM 66.0 °F 42.1 °F 42% 30.09 in 10.0 mi NW 5.8 mph - N/A   Clear
11:53 PM 64.0 °F 39.9 °F 41% 30.11 in 10.0 mi Variable 5.8 mph - N/A   Clear